Time,TemperatureF,DewpointF,PressureIn,WindDirection,WindDirectionDegrees,WindSpeedMPH,WindSpeedGustMPH,Humidity,HourlyPrecipIn,Conditions,Clouds,dailyrainin,SoftwareType,DateUTC
2013-03-17 00:03:00,31.0,30.0,-100.00,West,260,5.0,6.0,98,-99.99,,,-99.99,,2013-03-17 04:03:00,
2013-03-17 00:13:00,31.0,31.0,-100.00,West,260,4.0,6.0,98,-99.99,,,-99.99,,2013-03-17 04:13:00,
2013-03-17 00:23:00,31.0,31.0,-100.00,WSW,250,4.0,6.0,98,-99.99,,,-99.99,,2013-03-17 04:23:00,
2013-03-17 00:33:00,31.0,30.0,-100.00,WSW,245,4.0,6.0,98,-99.99,,,-99.99,,2013-03-17 04:33:00,
2013-03-17 00:43:00,31.0,30.0,-100.00,WSW,255,4.0,6.0,98,-99.99,,,-99.99,,2013-03-17 04:43:00,
2013-03-17 00:53:00,31.0,30.0,-100.00,West,270,5.0,7.0,98,-99.99,,,-99.99,,2013-03-17 04:53:00,
2013-03-17 01:03:00,31.0,30.0,-100.00,West,265,6.0,7.0,98,-99.99,,,-99.99,,2013-03-17 05:03:00,
2013-03-17 01:12:00,31.0,30.0,-100.00,West,260,4.0,6.0,98,-99.99,,,-99.99,,2013-03-17 05:12:00,
2013-03-17 01:22:00,31.0,30.0,-100.00,West,275,6.0,7.0,98,-99.99,,,-99.99,,2013-03-17 05:22:00,
2013-03-17 01:32:00,31.0,30.0,-100.00,WNW,285,7.0,9.0,98,-99.99,,,-99.99,,2013-03-17 05:32:00,
2013-03-17 01:42:00,31.0,30.0,-100.00,WNW,290,6.0,9.0,97,-99.99,,,-99.99,,2013-03-17 05:42:00,
2013-03-17 01:52:00,30.0,30.0,-100.00,WNW,295,7.0,8.0,97,-99.99,,,-99.99,,2013-03-17 05:52:00,
2013-03-17 02:02:00,30.0,29.0,-100.00,WNW,295,7.0,10.0,95,-99.99,,,-99.99,,2013-03-17 06:02:00,
2013-03-17 02:12:00,30.0,29.0,-100.00,WNW,295,7.0,9.0,94,-99.99,,,-99.99,,2013-03-17 06:12:00,
2013-03-17 02:22:00,30.0,28.0,-100.00,WNW,290,7.0,9.0,92,-99.99,,,-99.99,,2013-03-17 06:22:00,
2013-03-17 02:32:00,30.0,28.0,-100.00,WNW,295,8.0,12.0,90,-99.99,,,-99.99,,2013-03-17 06:32:00,
2013-03-17 02:42:00,30.0,28.0,-100.00,NW,305,6.0,10.0,89,-99.99,,,-99.99,,2013-03-17 06:42:00,
2013-03-17 02:52:00,30.0,28.0,-100.00,NW,305,7.0,9.0,89,-99.99,,,-99.99,,2013-03-17 06:52:00,
2013-03-17 03:02:00,30.0,27.0,-100.00,WNW,300,9.0,14.0,88,-99.99,,,-99.99,,2013-03-17 07:02:00,
2013-03-17 03:12:00,30.0,27.0,-100.00,NW,305,9.0,12.0,87,-99.99,,,-99.99,,2013-03-17 07:12:00,
2013-03-17 03:22:00,30.0,26.0,-100.00,WNW,300,10.0,13.0,86,-99.99,,,-99.99,,2013-03-17 07:22:00,
2013-03-17 03:32:00,30.0,26.0,-100.00,NW,305,9.0,12.0,84,-99.99,,,-99.99,,2013-03-17 07:32:00,
2013-03-17 03:42:00,30.0,26.0,-100.00,NW,310,9.0,12.0,83,-99.99,,,-99.99,,2013-03-17 07:42:00,
2013-03-17 03:52:00,30.0,26.0,-100.00,NW,320,6.0,12.0,83,-99.99,,,-99.99,,2013-03-17 07:52:00,
2013-03-17 04:03:00,30.0,25.0,-100.00,WNW,295,5.0,7.0,82,-99.99,,,-99.99,,2013-03-17 08:03:00,
2013-03-17 04:13:00,30.0,26.0,-100.00,NW,305,2.0,6.0,81,-99.99,,,-99.99,,2013-03-17 08:13:00,
2013-03-17 04:22:00,30.0,25.0,-100.00,West,260,2.0,4.0,81,-99.99,,,-99.99,,2013-03-17 08:22:00,
2013-03-17 04:33:00,30.0,25.0,-100.00,WSW,240,2.0,3.0,82,-99.99,,,-99.99,,2013-03-17 08:33:00,
2013-03-17 04:42:00,30.0,25.0,-100.00,WSW,255,2.0,3.0,82,-99.99,,,-99.99,,2013-03-17 08:42:00,
2013-03-17 04:52:00,30.0,25.0,-100.00,SW,220,2.0,2.0,82,-99.99,,,-99.99,,2013-03-17 08:52:00,
2013-03-17 05:03:00,30.0,26.0,-100.00,SW,220,2.0,2.0,82,-99.99,,,-99.99,,2013-03-17 09:03:00,
2013-03-17 05:12:00,30.0,26.0,-100.00,WSW,250,2.0,4.0,82,-99.99,,,-99.99,,2013-03-17 09:12:00,
2013-03-17 05:22:00,30.0,26.0,-100.00,WSW,250,3.0,4.0,82,-99.99,,,-99.99,,2013-03-17 09:22:00,
2013-03-17 05:32:00,30.0,25.0,-100.00,West,265,4.0,4.0,82,-99.99,,,-99.99,,2013-03-17 09:32:00,
2013-03-17 05:43:00,30.0,26.0,-100.00,West,270,4.0,7.0,82,-99.99,,,-99.99,,2013-03-17 09:43:00,
2013-03-17 05:53:00,30.0,26.0,-100.00,WNW,290,4.0,6.0,82,-99.99,,,-99.99,,2013-03-17 09:53:00,
2013-03-17 06:03:00,30.0,26.0,-100.00,WNW,285,7.0,11.0,82,-99.99,,,-99.99,,2013-03-17 10:03:00,
2013-03-17 06:13:00,31.0,26.0,-100.00,WNW,300,9.0,14.0,82,-99.99,,,-99.99,,2013-03-17 10:13:00,
2013-03-17 06:23:00,28.0,22.0,-100.00,NW,310,16.0,22.0,77,-99.99,,,-99.99,,2013-03-17 10:23:00,
2013-03-17 06:33:00,28.0,21.0,-100.00,NW,305,16.0,25.0,75,-99.99,,,-99.99,,2013-03-17 10:33:00,
2013-03-17 06:42:00,28.0,21.0,-100.00,NW,305,16.0,25.0,75,-99.99,,,-99.99,,2013-03-17 10:42:00,
2013-03-17 06:52:00,28.0,20.0,-100.00,NW,310,16.0,22.0,72,-99.99,,,-99.99,,2013-03-17 10:52:00,
2013-03-17 07:02:00,27.0,19.0,-100.00,NW,315,13.0,21.0,70,-99.99,,,-99.99,,2013-03-17 11:02:00,
2013-03-17 07:12:00,27.0,19.0,-100.00,NW,315,12.0,15.0,70,-99.99,,,-99.99,,2013-03-17 11:12:00,
2013-03-17 07:22:00,27.0,18.0,-100.00,NW,315,14.0,19.0,68,-99.99,,,-99.99,,2013-03-17 11:22:00,
2013-03-17 07:32:00,27.0,18.0,-100.00,NW,320,11.0,17.0,69,-99.99,,,-99.99,,2013-03-17 11:32:00,
2013-03-17 07:42:00,27.0,19.0,-100.00,NW,325,12.0,17.0,70,-99.99,,,-99.99,,2013-03-17 11:42:00,
2013-03-17 07:52:00,27.0,19.0,-100.00,NW,325,14.0,17.0,70,-99.99,,,-99.99,,2013-03-17 11:52:00,
2013-03-17 08:02:00,27.0,19.0,-100.00,NW,325,11.0,15.0,71,-99.99,,,-99.99,,2013-03-17 12:02:00,
2013-03-17 08:12:00,27.0,19.0,-100.00,NW,315,10.0,14.0,72,-99.99,,,-99.99,,2013-03-17 12:12:00,
2013-03-17 08:22:00,27.0,19.0,-100.00,NNW,330,8.0,12.0,72,-99.99,,,-99.99,,2013-03-17 12:22:00,
2013-03-17 08:33:00,27.0,19.0,-100.00,NW,325,7.0,11.0,72,-99.99,,,-99.99,,2013-03-17 12:33:00,
2013-03-17 08:43:00,27.0,19.0,-100.00,NW,325,7.0,12.0,72,-99.99,,,-99.99,,2013-03-17 12:43:00,
2013-03-17 08:52:00,27.0,19.0,-100.00,NW,325,9.0,12.0,72,-99.99,,,-99.99,,2013-03-17 12:52:00,
2013-03-17 09:02:00,27.0,20.0,-100.00,NNW,330,9.0,12.0,72,-99.99,,,-99.99,,2013-03-17 13:02:00,
2013-03-17 09:12:00,28.0,20.0,-100.00,NNW,330,7.0,12.0,73,-99.99,,,-99.99,,2013-03-17 13:12:00,
2013-03-17 09:22:00,28.0,20.0,-100.00,NNW,330,9.0,12.0,72,-99.99,,,-99.99,,2013-03-17 13:22:00,
2013-03-17 09:32:00,28.0,20.0,-100.00,NNW,335,7.0,12.0,72,-99.99,,,-99.99,,2013-03-17 13:32:00,
2013-03-17 09:42:00,28.0,21.0,-100.00,NNW,340,7.0,13.0,73,-99.99,,,-99.99,,2013-03-17 13:42:00,
2013-03-17 09:52:00,28.0,21.0,-100.00,NNW,345,9.0,13.0,73,-99.99,,,-99.99,,2013-03-17 13:52:00,
2013-03-17 10:02:00,29.0,21.0,-100.00,NNW,345,9.0,12.0,73,-99.99,,,-99.99,,2013-03-17 14:02:00,
2013-03-17 10:12:00,29.0,21.0,-100.00,North,350,7.0,11.0,74,-99.99,,,-99.99,,2013-03-17 14:12:00,
2013-03-17 10:22:00,29.0,22.0,-100.00,North,350,8.0,12.0,74,-99.99,,,-99.99,,2013-03-17 14:22:00,
2013-03-17 10:33:00,29.0,22.0,-100.00,NNW,340,7.0,9.0,74,-99.99,,,-99.99,,2013-03-17 14:33:00,
2013-03-17 10:42:00,29.0,22.0,-100.00,North,350,9.0,12.0,74,-99.99,,,-99.99,,2013-03-17 14:42:00,
2013-03-17 10:52:00,29.0,21.0,-100.00,North,0,10.0,14.0,73,-99.99,,,-99.99,,2013-03-17 14:52:00,
2013-03-17 11:02:00,29.0,21.0,-100.00,North,350,12.0,16.0,74,-99.99,,,-99.99,,2013-03-17 15:02:00,
2013-03-17 11:12:00,29.0,21.0,-100.00,North,355,12.0,16.0,74,-99.99,,,-99.99,,2013-03-17 15:12:00,
2013-03-17 11:23:00,28.0,22.0,-100.00,North,350,12.0,16.0,75,-99.99,,,-99.99,,2013-03-17 15:23:00,
2013-03-17 11:33:00,29.0,22.0,-100.00,North,355,11.0,15.0,76,-99.99,,,-99.99,,2013-03-17 15:33:00,
2013-03-17 11:43:00,28.0,22.0,-100.00,North,0,11.0,14.0,76,-99.99,,,-99.99,,2013-03-17 15:43:00,
2013-03-17 11:52:00,28.0,22.0,-100.00,North,355,11.0,17.0,76,-99.99,,,-99.99,,2013-03-17 15:52:00,
2013-03-17 12:03:00,29.0,22.0,-100.00,North,355,11.0,16.0,77,-99.99,,,-99.99,,2013-03-17 16:03:00,
2013-03-17 12:12:00,28.0,22.0,-100.00,NNE,20,14.0,17.0,76,-99.99,,,-99.99,,2013-03-17 16:12:00,
2013-03-17 12:23:00,29.0,22.0,-100.00,NNE,15,12.0,17.0,75,-99.99,,,-99.99,,2013-03-17 16:23:00,
2013-03-17 12:33:00,29.0,21.0,-100.00,NNE,15,11.0,16.0,73,-99.99,,,-99.99,,2013-03-17 16:33:00,
2013-03-17 12:42:00,29.0,21.0,-100.00,NNE,15,11.0,16.0,73,-99.99,,,-99.99,,2013-03-17 16:42:00,
2013-03-17 12:52:00,29.0,22.0,-100.00,North,0,9.0,16.0,73,-99.99,,,-99.99,,2013-03-17 16:52:00,
2013-03-17 13:02:00,29.0,22.0,-100.00,North,5,11.0,16.0,74,-99.99,,,-99.99,,2013-03-17 17:02:00,
2013-03-17 13:12:00,29.0,22.0,-100.00,NNE,20,12.0,16.0,75,-99.99,,,-99.99,,2013-03-17 17:12:00,
2013-03-17 13:22:00,29.0,22.0,-100.00,NNE,15,12.0,16.0,75,-99.99,,,-99.99,,2013-03-17 17:22:00,
2013-03-17 13:33:00,29.0,22.0,-100.00,North,5,12.0,19.0,76,-99.99,,,-99.99,,2013-03-17 17:33:00,
2013-03-17 13:42:00,29.0,22.0,-100.00,North,0,11.0,17.0,76,-99.99,,,-99.99,,2013-03-17 17:42:00,
2013-03-17 13:52:00,29.0,22.0,-100.00,North,10,14.0,17.0,77,-99.99,,,-99.99,,2013-03-17 17:52:00,
2013-03-17 14:02:00,29.0,23.0,-100.00,North,5,13.0,17.0,77,-99.99,,,-99.99,,2013-03-17 18:02:00,
2013-03-17 14:12:00,29.0,22.0,-100.00,North,0,11.0,19.0,76,-99.99,,,-99.99,,2013-03-17 18:12:00,
2013-03-17 14:22:00,29.0,22.0,-100.00,NNE,15,12.0,18.0,76,-99.99,,,-99.99,,2013-03-17 18:22:00,
2013-03-17 14:32:00,29.0,22.0,-100.00,North,10,12.0,19.0,75,-99.99,,,-99.99,,2013-03-17 18:32:00,
2013-03-17 14:42:00,29.0,22.0,-100.00,North,0,10.0,17.0,75,-99.99,,,-99.99,,2013-03-17 18:42:00,
2013-03-17 14:52:00,29.0,22.0,-100.00,NNE,15,16.0,17.0,75,-99.99,,,-99.99,,2013-03-17 18:52:00,
2013-03-17 15:02:00,29.0,23.0,-100.00,NNE,20,14.0,17.0,77,-99.99,,,-99.99,,2013-03-17 19:02:00,
2013-03-17 15:12:00,29.0,23.0,-100.00,NNE,20,15.0,18.0,77,-99.99,,,-99.99,,2013-03-17 19:12:00,
2013-03-17 15:22:00,29.0,23.0,-100.00,NNE,20,15.0,18.0,77,-99.99,,,-99.99,,2013-03-17 19:22:00,
2013-03-17 15:33:00,29.0,23.0,-100.00,NE,35,12.0,16.0,76,-99.99,,,-99.99,,2013-03-17 19:33:00,
2013-03-17 15:42:00,29.0,23.0,-100.00,North,5,12.0,16.0,75,-99.99,,,-99.99,,2013-03-17 19:42:00,
2013-03-17 15:53:00,30.0,23.0,-100.00,NNE,15,14.0,17.0,75,-99.99,,,-99.99,,2013-03-17 19:53:00,
2013-03-17 16:02:00,30.0,23.0,-100.00,NNE,15,11.0,16.0,74,-99.99,,,-99.99,,2013-03-17 20:02:00,
2013-03-17 16:12:00,30.0,22.0,-100.00,NNE,15,12.0,17.0,73,-99.99,,,-99.99,,2013-03-17 20:12:00,
2013-03-17 16:22:00,30.0,22.0,-100.00,NNE,20,12.0,16.0,73,-99.99,,,-99.99,,2013-03-17 20:22:00,
2013-03-17 16:33:00,30.0,22.0,-100.00,NNE,15,12.0,16.0,72,-99.99,,,-99.99,,2013-03-17 20:33:00,
2013-03-17 16:42:00,30.0,22.0,-100.00,NNE,15,13.0,17.0,70,-99.99,,,-99.99,,2013-03-17 20:42:00,
2013-03-17 16:52:00,30.0,22.0,-100.00,NNE,25,14.0,17.0,71,-99.99,,,-99.99,,2013-03-17 20:52:00,
2013-03-17 17:03:00,30.0,22.0,-100.00,NNE,15,13.0,17.0,71,-99.99,,,-99.99,,2013-03-17 21:03:00,
2013-03-17 17:12:00,31.0,22.0,-100.00,NNE,20,14.0,19.0,70,-99.99,,,-99.99,,2013-03-17 21:12:00,
2013-03-17 17:22:00,30.0,22.0,-100.00,NNE,30,13.0,19.0,69,-99.99,,,-99.99,,2013-03-17 21:22:00,
2013-03-17 17:33:00,30.0,21.0,-100.00,NNE,30,14.0,16.0,68,-99.99,,,-99.99,,2013-03-17 21:33:00,
2013-03-17 17:43:00,30.0,21.0,-100.00,NNE,30,14.0,16.0,68,-99.99,,,-99.99,,2013-03-17 21:43:00,
2013-03-17 17:52:00,30.0,22.0,-100.00,North,10,12.0,19.0,69,-99.99,,,-99.99,,2013-03-17 21:52:00,
2013-03-17 18:03:00,30.0,22.0,-100.00,North,10,14.0,17.0,70,-99.99,,,-99.99,,2013-03-17 22:03:00,
2013-03-17 18:12:00,31.0,22.0,-100.00,NNE,25,12.0,18.0,70,-99.99,,,-99.99,,2013-03-17 22:12:00,
2013-03-17 18:23:00,30.0,21.0,-100.00,NNE,30,12.0,16.0,69,-99.99,,,-99.99,,2013-03-17 22:23:00,
2013-03-17 18:33:00,30.0,21.0,-100.00,NNE,15,14.0,17.0,68,-99.99,,,-99.99,,2013-03-17 22:33:00,
2013-03-17 18:42:00,30.0,21.0,-100.00,NNE,25,15.0,18.0,68,-99.99,,,-99.99,,2013-03-17 22:42:00,
2013-03-17 18:52:00,30.0,22.0,-100.00,NNE,30,12.0,17.0,70,-99.99,,,-99.99,,2013-03-17 22:52:00,
2013-03-17 19:03:00,30.0,22.0,-100.00,NNE,30,14.0,16.0,71,-99.99,,,-99.99,,2013-03-17 23:03:00,
2013-03-17 19:12:00,30.0,22.0,-100.00,NNE,25,13.0,17.0,71,-99.99,,,-99.99,,2013-03-17 23:12:00,
2013-03-17 19:22:00,30.0,22.0,-100.00,NE,40,12.0,17.0,71,-99.99,,,-99.99,,2013-03-17 23:22:00,
2013-03-17 19:33:00,30.0,22.0,-100.00,NNE,30,12.0,17.0,71,-99.99,,,-99.99,,2013-03-17 23:33:00,
2013-03-17 19:42:00,29.0,22.0,-100.00,NNE,30,13.0,16.0,72,-99.99,,,-99.99,,2013-03-17 23:42:00,
2013-03-17 19:52:00,29.0,21.0,-100.00,NNE,20,17.0,20.0,71,-99.99,,,-99.99,,2013-03-17 23:52:00,
2013-03-17 20:03:00,29.0,21.0,-100.00,NNE,25,15.0,19.0,71,-99.99,,,-99.99,,2013-03-18 00:03:00,
2013-03-17 20:12:00,29.0,21.0,-100.00,NNE,25,13.0,19.0,72,-99.99,,,-99.99,,2013-03-18 00:12:00,
2013-03-17 20:22:00,28.0,21.0,-100.00,NNE,30,13.0,17.0,73,-99.99,,,-99.99,,2013-03-18 00:22:00,
2013-03-17 20:33:00,28.0,21.0,-100.00,NNE,30,14.0,18.0,72,-99.99,,,-99.99,,2013-03-18 00:33:00,
2013-03-17 20:42:00,28.0,20.0,-100.00,NNE,25,12.0,19.0,72,-99.99,,,-99.99,,2013-03-18 00:42:00,
2013-03-17 20:52:00,28.0,21.0,-100.00,NNE,25,14.0,17.0,74,-99.99,,,-99.99,,2013-03-18 00:52:00,
2013-03-17 21:02:00,28.0,20.0,-100.00,NNE,25,17.0,21.0,72,-99.99,,,-99.99,,2013-03-18 01:02:00,
2013-03-17 21:12:00,28.0,20.0,-100.00,NNE,25,13.0,20.0,73,-99.99,,,-99.99,,2013-03-18 01:12:00,
2013-03-17 21:22:00,28.0,20.0,-100.00,NNE,20,16.0,20.0,73,-99.99,,,-99.99,,2013-03-18 01:22:00,
2013-03-17 21:32:00,28.0,20.0,-100.00,NNE,20,16.0,19.0,73,-99.99,,,-99.99,,2013-03-18 01:32:00,
2013-03-17 21:42:00,28.0,20.0,-100.00,NNE,25,13.0,19.0,74,-99.99,,,-99.99,,2013-03-18 01:42:00,
2013-03-17 21:52:00,28.0,21.0,-100.00,NNE,25,13.0,19.0,74,-99.99,,,-99.99,,2013-03-18 01:52:00,
2013-03-17 22:02:00,28.0,21.0,-100.00,NNE,30,12.0,18.0,75,-99.99,,,-99.99,,2013-03-18 02:02:00,
2013-03-17 22:12:00,28.0,21.0,-100.00,NNE,25,15.0,19.0,75,-99.99,,,-99.99,,2013-03-18 02:12:00,
2013-03-17 22:22:00,28.0,21.0,-100.00,NNE,30,13.0,19.0,75,-99.99,,,-99.99,,2013-03-18 02:22:00,
2013-03-17 22:32:00,28.0,21.0,-100.00,NNE,25,14.0,18.0,76,-99.99,,,-99.99,,2013-03-18 02:32:00,
2013-03-17 22:42:00,28.0,21.0,-100.00,NNE,25,16.0,21.0,76,-99.99,,,-99.99,,2013-03-18 02:42:00,
2013-03-17 22:52:00,28.0,22.0,-100.00,NNE,30,13.0,17.0,77,-99.99,,,-99.99,,2013-03-18 02:52:00,
2013-03-17 23:03:00,28.0,22.0,-100.00,NNE,30,12.0,21.0,78,-99.99,,,-99.99,,2013-03-18 03:03:00,
2013-03-17 23:11:00,28.0,22.0,-100.00,NNE,30,14.0,21.0,78,-99.99,,,-99.99,,2013-03-18 03:11:00,
2013-03-17 23:22:00,28.0,22.0,-100.00,NE,35,15.0,21.0,78,-99.99,,,-99.99,,2013-03-18 03:22:00,
2013-03-17 23:33:00,28.0,22.0,-100.00,NE,35,17.0,22.0,78,-99.99,,,-99.99,,2013-03-18 03:33:00,
2013-03-17 23:42:00,28.0,22.0,-100.00,NNE,30,16.0,22.0,78,-99.99,,,-99.99,,2013-03-18 03:42:00,
2013-03-17 23:53:00,28.0,22.0,-100.00,NE,35,15.0,20.0,79,-99.99,,,-99.99,,2013-03-18 03:53:00,